SB KEPS @ AMSAT $ORB13346.O Orbital Elements 13346.OSCAR
HR AMSAT ORBITAL ELEMENTS FOR OSCAR SATELLITES FROM WA5QGD FORT WORTH,TX December 12, 2013 BID: ORB13346.O TO ALL RADIO AMATEURS BT
Satellite: AO-07 Catalog number: 07530 Epoch time: 13346.48486199 Element set: 845 Inclination: 101.4507 deg RA of node: 329.6349 deg Eccentricity: 0.0011677 Arg of perigee: 300.7137 deg Mean anomaly: 176.3670 deg Mean motion: 12.53600779 rev/day Decay rate: -3.8e-07 rev/day^2 Epoch rev: 78812 Checksum: 321
Satellite: FO-29 Catalog number: 24278 Epoch time: 13346.66825816 Element set: 262 Inclination: 098.5307 deg RA of node: 021.1448 deg Eccentricity: 0.0351324 Arg of perigee: 061.6302 deg Mean anomaly: 082.5666 deg Mean motion: 13.53011694 rev/day Decay rate: 1.0e-08 rev/day^2 Epoch rev: 85544 Checksum: 296
Satellite: SO-33 Catalog number: 25509 Epoch time: 13345.54022697 Element set: 646 Inclination: 031.4334 deg RA of node: 143.3547 deg Eccentricity: 0.0350770 Arg of perigee: 270.7553 deg Mean anomaly: 156.0645 deg Mean motion: 14.29259195 rev/day Decay rate: 4.85e-06 rev/day^2 Epoch rev: 79028 Checksum: 317
Satellite: RS-22 Catalog number: 27939 Epoch time: 13346.83914941 Element set: 31 Inclination: 097.7996 deg RA of node: 165.4164 deg Eccentricity: 0.0013324 Arg of perigee: 344.8575 deg Mean anomaly: 015.2243 deg Mean motion: 14.64734224 rev/day Decay rate: 1.480e-05 rev/day^2 Epoch rev: 54544 Checksum: 315
Satellite: VO-52 Catalog number: 28650 Epoch time: 13346.78552589 Element set: 604 Inclination: 097.5618 deg RA of node: 356.2093 deg Eccentricity: 0.0026859 Arg of perigee: 054.9567 deg Mean anomaly: 357.2115 deg Mean motion: 14.84461041 rev/day Decay rate: 3.282e-05 rev/day^2 Epoch rev: 46557 Checksum: 342
Satellite: HO-68 Catalog number: 36122 Epoch time: 13346.66600607 Element set: 141 Inclination: 100.2809 deg RA of node: 039.0068 deg Eccentricity: 0.0007268 Arg of perigee: 305.9414 deg Mean anomaly: 054.1027 deg Mean motion: 13.16309704 rev/day Decay rate: -4.4e-07 rev/day^2 Epoch rev: 19189 Checksum: 278
Satellite: AO-73 Catalog number: 39445 Epoch time: 13346.14056029 Element set: 8 Inclination: 097.7977 deg RA of node: 058.1032 deg Eccentricity: 0.0064492 Arg of perigee: 128.9994 deg Mean anomaly: 231.7074 deg Mean motion: 14.77202057 rev/day Decay rate: 3.320e-05 rev/day^2 Epoch rev: 141 Checksum: 301
/EX SB KEPS @ AMSAT $ORB13346.D Orbital Elements 13346.MICROS
HR AMSAT ORBITAL ELEMENTS FOR THE MICROSATS FROM WA5QGD FORT WORTH,TX December 12, 2013 BID: ORB13346.D TO ALL RADIO AMATEURS BT
Satellite: UO-11 Catalog number: 14781 Epoch time: 13346.13452925 Element set: 360 Inclination: 097.8804 deg RA of node: 044.6916 deg Eccentricity: 0.0009987 Arg of perigee: 075.0130 deg Mean anomaly: 285.2187 deg Mean motion: 14.81169011 rev/day Decay rate: 1.048e-05 rev/day^2 Epoch rev: 60027 Checksum: 297
Satellite: AO-16 Catalog number: 20439 Epoch time: 13345.87816743 Element set: 904 Inclination: 098.4907 deg RA of node: 281.9265 deg Eccentricity: 0.0010637 Arg of perigee: 359.6172 deg Mean anomaly: 036.7473 deg Mean motion: 14.32247726 rev/day Decay rate: 2.35e-06 rev/day^2 Epoch rev: 24767 Checksum: 332
Satellite: LO-19 Catalog number: 20442 Epoch time: 13345.60429140 Element set: 842 Inclination: 098.4607 deg RA of node: 282.8867 deg Eccentricity: 0.0011388 Arg of perigee: 349.3978 deg Mean anomaly: 010.6965 deg Mean motion: 14.32454446 rev/day Decay rate: 2.22e-06 rev/day^2 Epoch rev: 24782 Checksum: 320
Satellite: AO-27 Catalog number: 22825 Epoch time: 13346.74945207 Element set: 547 Inclination: 098.6412 deg RA of node: 289.0619 deg Eccentricity: 0.0009467 Arg of perigee: 122.1081 deg Mean anomaly: 300.4586 deg Mean motion: 14.29626483 rev/day Decay rate: 2.12e-06 rev/day^2 Epoch rev: 5414 Checksum: 305
Satellite: IO-26 Catalog number: 22826 Epoch time: 13346.77794726 Element set: 304 Inclination: 098.6354 deg RA of node: 289.3421 deg Eccentricity: 0.0010047 Arg of perigee: 115.7405 deg Mean anomaly: 279.2780 deg Mean motion: 14.29917290 rev/day Decay rate: 2.46e-06 rev/day^2 Epoch rev: 5428 Checksum: 320
Satellite: GO-32 Catalog number: 25397 Epoch time: 13346.88176737 Element set: 228 Inclination: 098.4425 deg RA of node: 307.1008 deg Eccentricity: 0.0002322 Arg of perigee: 119.7450 deg Mean anomaly: 293.2726 deg Mean motion: 14.23383774 rev/day Decay rate: 1.40e-06 rev/day^2 Epoch rev: 80136 Checksum: 300
Satellite: NO-44 Catalog number: 26931 Epoch time: 13346.87070442 Element set: 487 Inclination: 067.0506 deg RA of node: 158.8635 deg Eccentricity: 0.0006227 Arg of perigee: 262.9729 deg Mean anomaly: 097.0664 deg Mean motion: 14.30002792 rev/day Decay rate: 2.49e-06 rev/day^2 Epoch rev: 63696 Checksum: 326
Satellite: SO-50 Catalog number: 27607 Epoch time: 13346.60283819 Element set: 245 Inclination: 064.5580 deg RA of node: 080.8821 deg Eccentricity: 0.0032016 Arg of perigee: 087.4644 deg Mean anomaly: 015.1027 deg Mean motion: 14.73258741 rev/day Decay rate: 1.321e-05 rev/day^2 Epoch rev: 58999 Checksum: 306
Satellite: CO-55 Catalog number: 27844 Epoch time: 13346.60507127 Element set: 806 Inclination: 098.6998 deg RA of node: 353.0833 deg Eccentricity: 0.0010761 Arg of perigee: 095.3418 deg Mean anomaly: 022.5111 deg Mean motion: 14.21334696 rev/day Decay rate: 4.64e-06 rev/day^2 Epoch rev: 54207 Checksum: 306
Satellite: CO-57 Catalog number: 27848 Epoch time: 13346.57024839 Element set: 748 Inclination: 098.7088 deg RA of node: 352.6575 deg Eccentricity: 0.0010713 Arg of perigee: 101.1771 deg Mean anomaly: 016.4224 deg Mean motion: 14.21045245 rev/day Decay rate: 3.94e-06 rev/day^2 Epoch rev: 54199 Checksum: 319
Satellite: AO-51 Catalog number: 28375 Epoch time: 13346.89190109 Element set: 722 Inclination: 098.2278 deg RA of node: 295.4096 deg Eccentricity: 0.0083237 Arg of perigee: 194.7466 deg Mean anomaly: 234.7721 deg Mean motion: 14.41227721 rev/day Decay rate: 3.00e-06 rev/day^2 Epoch rev: 49707 Checksum: 324
Satellite: CP3 Catalog number: 31129 Epoch time: 13346.09998069 Element set: 622 Inclination: 097.9139 deg RA of node: 328.8747 deg Eccentricity: 0.0098490 Arg of perigee: 233.0502 deg Mean anomaly: 186.4786 deg Mean motion: 14.54059662 rev/day Decay rate: 1.366e-05 rev/day^2 Epoch rev: 35284 Checksum: 346
Satellite: CO-65 Catalog number: 32785 Epoch time: 13346.83921678 Element set: 813 Inclination: 097.7288 deg RA of node: 039.0886 deg Eccentricity: 0.0015554 Arg of perigee: 083.3068 deg Mean anomaly: 335.0112 deg Mean motion: 14.84430062 rev/day Decay rate: 2.928e-05 rev/day^2 Epoch rev: 30437 Checksum: 326
Satellite: PRISM Catalog number: 33493 Epoch time: 13346.72593918 Element set: 451 Inclination: 098.2343 deg RA of node: 149.9119 deg Eccentricity: 0.0017506 Arg of perigee: 335.2975 deg Mean anomaly: 024.7424 deg Mean motion: 14.87247230 rev/day Decay rate: 5.903e-05 rev/day^2 Epoch rev: 26444 Checksum: 315
Satellite: SOHLA-1 Catalog number: 33496 Epoch time: 13345.83128181 Element set: 221 Inclination: 098.1514 deg RA of node: 101.5947 deg Eccentricity: 0.0007772 Arg of perigee: 116.3436 deg Mean anomaly: 046.3001 deg Mean motion: 14.70488406 rev/day Decay rate: 6.94e-06 rev/day^2 Epoch rev: 26197 Checksum: 291
Satellite: TISAT-1 Catalog number: 36799 Epoch time: 13346.76915412 Element set: 715 Inclination: 098.0272 deg RA of node: 072.5300 deg Eccentricity: 0.0013823 Arg of perigee: 203.7489 deg Mean anomaly: 156.3119 deg Mean motion: 14.84180336 rev/day Decay rate: 4.451e-05 rev/day^2 Epoch rev: 18505 Checksum: 301
Satellite: STUDSAT Catalog number: 36801 Epoch time: 13344.87274661 Element set: 729 Inclination: 098.0400 deg RA of node: 075.6337 deg Eccentricity: 0.0011061 Arg of perigee: 187.6997 deg Mean anomaly: 311.0967 deg Mean motion: 14.91149204 rev/day Decay rate: 1.6973e-04 rev/day^2 Epoch rev: 18501 Checksum: 310
Satellite: ALMASAT-1 Catalog number: 38078 Epoch time: 13346.50964956 Element set: 872 Inclination: 069.4757 deg RA of node: 144.3155 deg Eccentricity: 0.0658224 Arg of perigee: 277.1488 deg Mean anomaly: 075.5292 deg Mean motion: 14.34871132 rev/day Decay rate: 2.9417e-04 rev/day^2 Epoch rev: 9472 Checksum: 347
Satellite: XATCOBEO Catalog number: 38082 Epoch time: 13346.68439492 Element set: 756 Inclination: 069.4679 deg RA of node: 093.3057 deg Eccentricity: 0.0463198 Arg of perigee: 249.4529 deg Mean anomaly: 105.6404 deg Mean motion: 14.85153120 rev/day Decay rate: 1.42581e-03 rev/day^2 Epoch rev: 9613 Checksum: 331
Satellite: CUBEBUG-1 Catalog number: 39153 Epoch time: 13346.82662292 Element set: 664 Inclination: 098.0608 deg RA of node: 062.4695 deg Eccentricity: 0.0017165 Arg of perigee: 227.3738 deg Mean anomaly: 132.6022 deg Mean motion: 14.76892191 rev/day Decay rate: 2.282e-05 rev/day^2 Epoch rev: 3404 Checksum: 305
Satellite: ESTCUBE-1 Catalog number: 39161 Epoch time: 13346.67672926 Element set: 634 Inclination: 098.1170 deg RA of node: 063.8976 deg Eccentricity: 0.0008852 Arg of perigee: 268.6579 deg Mean anomaly: 091.3614 deg Mean motion: 14.69346957 rev/day Decay rate: 1.808e-05 rev/day^2 Epoch rev: 3220 Checksum: 338
/EX SB KEPS @ AMSAT $ORB13346.W Orbital Elements 13346.WEATHER
HR AMSAT ORBITAL ELEMENTS FOR WEATHER SATELLITES FROM WA5QGD FORT WORTH,TX December 12, 2013 BID: ORB13346.W TO ALL RADIO AMATEURS BT
Satellite: NOAA-10 Catalog number: 16969 Epoch time: 13346.50378385 Element set: 598 Inclination: 098.5298 deg RA of node: 010.3157 deg Eccentricity: 0.0013271 Arg of perigee: 085.2097 deg Mean anomaly: 083.2176 deg Mean motion: 14.27692835 rev/day Decay rate: 1.75e-06 rev/day^2 Epoch rev: 41738 Checksum: 333
Satellite: NOAA-11 Catalog number: 19531 Epoch time: 13346.34474861 Element set: 622 Inclination: 098.6989 deg RA of node: 065.0744 deg Eccentricity: 0.0012319 Arg of perigee: 112.3252 deg Mean anomaly: 247.9229 deg Mean motion: 14.15043584 rev/day Decay rate: 1.44e-06 rev/day^2 Epoch rev: 30131 Checksum: 289
